Location: McFarlands Corners
(41.4117°N, 81.3382°W)
Time: 14:35:47
(UTC+00:00)

Transit 2A - Pass Details

Date: 16 February 2026
Orbit: 590 x 954 km, 66.7° (Epoch: 7 March)

Event Time Altitude Azimuth Distance (km) Brightness Sun altitude
Rises 03:01:32 0° 332° (NNW) 3,574 10.0 -45.0°
Reaches altitude 10° 03:04:12 10° 336° (NNW) 2,592 9.1 -45.4°
Enters shadow 03:04:24 11° 336° (NNW) 2,518 9.1 -45.5°
